Back to catalog

COSMOS 1275 DEB

AlivePO
NORAD 42156·DEBRIS·🇷🇺 Russia

Launched Jun 4, 1981 from Plesetsk Cosmodrome

Loading…

Next Passes (next 24 hours)

TLE

FreshSource: Space-Track

Epoch: Sep 14, 2026, 09:47 UTC

1 42156U 81053RU  26257.40790534  .00001767  00000-0  92497-3 0  9994
2 42156  82.7431 316.3895 0048485 271.1491  88.4131 14.13256765641718

Track COSMOS 1275 DEB in real time with AllMySat

Download on the App Store